STARLINK-31950 (59863 NORAD) Tracking and Keplerian Element Data

This shows tracking and keplerian element data for the satellite.

Feedback or suggestion? Click here.




ElementValue
Catalog59863
NameSTARLINK-31950
Epoch Orbit294
Epoch Day160.16667824
Epoch Year2024
RAAN328.029
Inclination43.0025
Eccentricity0.000166
Argument of Perigee265.3015
Mean Anonmoly204.2265
Mean Motion15.73549378
Decay Rate-0.0155711
L11 59863U 24098F 24160.16667824 -.01557110 00000+0 -12109-1 0 9992
L22 59863 43.0025 328.0290 0001660 265.3015 204.2265 15.73549378 2944



Live tracking and technical data element details for STARLINK-31950 (NORAD 59863). STARLINK-31950 can be tracked NOW for your location showing map with azimuth and elevation plus other details from your city location.







IsCatalogInMostPopularTable: catalog: 59863, numindb: 8
Update: records affected: 1



GetName: 59863 STARLINK-31950

Hit Count: updated at: Tue, 16 Jul 2024 03:56:23 GMT